Ice House Reservoir Weather Center

Moon Phase Calendar



Ice House Reservoir Water Level
Online Cameras

 


      

Current Conditions in El Dorado
9/26/2021 11:17:43 AM

69°F
Feels Like 67
Clouds
Humidity
18%
Pressure
30"
Wind
11.8 mph (SW)
Dew Point
25°F
UV Index
4/10 (Moderate)
Visibility
6 mi

Hourly Forecast

Date & Time Sun, Sep 26
11:00 AM
Sun, Sep 26
12:00 PM
Sun, Sep 26
1:00 PM
Sun, Sep 26
2:00 PM
Sun, Sep 26
3:00 PM
Sun, Sep 26
4:00 PM
Sun, Sep 26
5:00 PM
Sun, Sep 26
6:00 PM
Sun, Sep 26
7:00 PM
Sun, Sep 26
8:00 PM
Sun, Sep 26
9:00 PM
Sun, Sep 26
10:00 PM
Sun, Sep 26
11:00 PM
Mon, Sep 27
12:00 AM
Mon, Sep 27
1:00 AM
Mon, Sep 27
2:00 AM
Mon, Sep 27
3:00 AM
Mon, Sep 27
4:00 AM
Mon, Sep 27
5:00 AM
Mon, Sep 27
6:00 AM
Mon, Sep 27
7:00 AM
Mon, Sep 27
8:00 AM
Mon, Sep 27
9:00 AM
Mon, Sep 27
10:00 AM
Mon, Sep 27
11:00 AM
Mon, Sep 27
12:00 PM
Mon, Sep 27
1:00 PM
Mon, Sep 27
2:00 PM
Mon, Sep 27
3:00 PM
Mon, Sep 27
4:00 PM
Mon, Sep 27
5:00 PM
Mon, Sep 27
6:00 PM
Mon, Sep 27
7:00 PM
Mon, Sep 27
8:00 PM
Mon, Sep 27
9:00 PM
Mon, Sep 27
10:00 PM
Mon, Sep 27
11:00 PM
Tue, Sep 28
12:00 AM
Tue, Sep 28
1:00 AM
Tue, Sep 28
2:00 AM
Tue, Sep 28
3:00 AM
Tue, Sep 28
4:00 AM
Tue, Sep 28
5:00 AM
Tue, Sep 28
6:00 AM
Tue, Sep 28
7:00 AM
Tue, Sep 28
8:00 AM
Tue, Sep 28
9:00 AM
Tue, Sep 28
10:00 AM
Condition
Clouds

Clouds

Clouds

Clouds

Clouds

Clear

Clear

Clear

Clear

Clear

Clear

Clear

Clear

Clear

Clear

Clear

Clear

Clear

Clear

Clear

Clear

Clear

Clear

Clouds

Clouds

Clear

Clear

Clear

Clear

Clear

Clear

Clouds

Clouds

Clouds

Clear

Clouds

Clouds

Clouds

Clouds

Rain

Clouds

Rain

Clouds

Clouds

Clouds

Clouds

Clouds

Clouds
Temperature 69°F70°F71°F72°F72°F71°F68°F64°F53°F51°F51°F51°F50°F50°F50°F49°F49°F49°F48°F47°F47°F53°F62°F65°F67°F69°F69°F68°F67°F65°F62°F58°F49°F45°F43°F45°F45°F45°F47°F47°F46°F46°F45°F44°F44°F45°F49°F53°F
Feels Like 67°F68°F69°F69°F69°F68°F65°F61°F50°F48°F48°F48°F47°F47°F48°F47°F47°F47°F46°F45°F45°F50°F59°F62°F65°F66°F66°F66°F64°F62°F59°F56°F47°F43°F41°F43°F43°F42°F45°F44°F43°F43°F44°F44°F44°F45°F49°F51°F
Cloudiness 75%60%45%30%15%0%0%0%0%0%0%1%2%3%4%4%5%5%6%10%9%9%9%11%12%8%6%6%5%4%5%14%13%11%10%19%27%69%85%89%91%92%94%96%98%99%99%99%
Visibility 6 mi6 mi6 mi6 mi6 mi6 mi6 mi6 mi6 mi6 mi6 mi6 mi6 mi6 mi6 mi6 mi6 mi6 mi6 mi6 mi6 mi6 mi6 mi6 mi6 mi6 mi6 mi6 mi6 mi6 mi6 mi6 mi6 mi6 mi6 mi6 mi6 mi6 mi6 mi3 mi1 mi3 mi4 mi6 mi6 mi6 mi6 mi6 mi
Precipitation 0%0%0%0%0%0%0%0%0%0%0%0%0%0%0%0%0%0%0%0%0%0%0%0%0%0%0%0%0%0%0%0%0%0%1%5%12%31%27%34%30%30%30%0%0%0%0%0%
Humidity 18%17%17%16%17%18%21%25%39%42%43%43%43%44%46%46%47%49%50%52%53%43%27%22%19%17%18%20%24%27%31%39%64%84%93%91%91%94%92%98%98%98%97%97%93%88%73%49%
Dew Point 25°F24°F25°F24°F25°F25°F26°F28°F29°F29°F29°F29°F29°F29°F29°F29°F30°F30°F30°F30°F30°F31°F28°F25°F23°F22°F23°F25°F28°F30°F31°F33°F37°F40°F41°F42°F43°F43°F45°F46°F46°F45°F44°F42°F41°F42°F40°F34°F
Pressure 30"30"30"29.97"29.97"29.97"29.97"30"30.06"30.09"30.09"30.09"30.09"30.09"30.09"30.09"30.09"30.06"30.06"30.09"30.09"30.06"30.03"30"30"29.97"29.97"29.97"29.94"29.94"29.97"29.97"30.03"30.06"30.06"30.06"30.03"30.03"30"30"30"30"30"30.03"30.03"30.03"30"29.97"
Wind Speed 11.8 mph12.9 mph13.5 mph13.2 mph13 mph12.4 mph10.6 mph6.2 mph2.8 mph5.2 mph5.6 mph5.4 mph5.1 mph4.9 mph4.8 mph5.2 mph5.2 mph5 mph4.8 mph4.6 mph4.9 mph3.6 mph7 mph10.2 mph12.4 mph14.1 mph14.8 mph14.9 mph14.5 mph13.9 mph12.5 mph9.6 mph5.6 mph3.7 mph4 mph3.7 mph4.2 mph5.3 mph5.8 mph6.4 mph6.7 mph6.1 mph4 mph2.3 mph1.2 mph2.8 mph2.4 mph2.4 mph
Wind
Direction
229°
SW
232°
SW
237°
WSW
237°
WSW
238°
WSW
236°
SW
234°
SW
231°
SW
157°
SSE
112°
ESE
111°
ESE
113°
ESE
114°
ESE
114°
ESE
113°
ESE
115°
ESE
116°
ESE
116°
ESE
117°
ESE
116°
ESE
111°
ESE
129°
SE
219°
SW
226°
SW
228°
SW
231°
SW
232°
SW
235°
SW
236°
SW
236°
SW
230°
SW
233°
SW
235°
SW
153°
SSE
139°
SE
158°
SSE
174°
S
184°
S
211°
SSW
224°
SW
227°
SW
239°
WSW
229°
SW
260°
W

N
64°
ENE
90°
E
257°
WSW

Daily Forecast

Date High Low Precip. Humidity
Today
Sep 26

Clouds
72 °F
50 °F
0%
17%
Monday
Sep 27

Clear
69 °F
43 °F
12%
17%
Tuesday
Sep 28

Rain
64 °F
40 °F
34%
38%
Wednesday
Sep 29

Clouds
69 °F
39 °F
0%
11%
Thursday
Sep 30

Clouds
75 °F
44 °F
0%
9%
Friday
Oct 1

Clouds
73 °F
50 °F
0%
11%
Saturday
Oct 2

Clear
77 °F
51 °F
0%
11%
Sunday
Oct 3

Clear
78 °F
53 °F
0%
14%
Monday
Oct 4

Clear
77 °F
55 °F
0%
18%
Tuesday
Oct 5

Clouds
78 °F
56 °F
0%
16%
Wednesday
Oct 6

Rain
75 °F
46 °F
71%
22%
Thursday
Oct 7

Rain
65 °F
45 °F
24%
38%
Friday
Oct 8

Rain
51 °F
36 °F
92%
48%
Saturday
Oct 9

Clouds
61 °F
32 °F
0%
33%
Sunday
Oct 10

Rain
54 °F
36 °F
98%
32%
Monday
Oct 11

Rain
54 °F
29 °F
62%
51%

Temperature 8-14 Day Outlook



Precipitation 8-14 Day Outlook




Quick Links
Ice House Reservoir News
Ice House Reservoir Photos
Ice House Reservoir Videos




About Us
Contact Us
Site Map
Search Site
Advertise With Us
   
IceHouse.LakesOnline.com
THE ICE HOUSE RESERVOIR WEBSITE

Copyright 2021, Lakes Online
Privacy    |    Legal